Temperature
14 14 13 13 13 13 12 12 12 12 12 12 11 11 11 11 11 11 11 11 11 11 11 11 12 12 12 12 12 12 12 12 13 13 13 13 13 14 14 15 15 15 15
15 14 14 14 13 13 13 13 12 12 12 12 12 12 12 11 11 11 11 11 11 11 11 11 11 11 11 12 12 12 12 12 12 13 13 13 13 13 13 14 14 15 15
15 14 14 14 14 13 13 13 13 13 12 12 12 12 12 12 12 11 11 11 11 11 11 11 11 11 11 12 12 12 12 12 12 12 12 12 13 13 13 13 14 14 14
15 15 14 14 14 14 13 13 13 13 13 13 13 12 12 12 12 12 12 11 11 11 11 11 11 11 11 11 11 11 11 11 12 12 12 12 12 12 13 13 13 13 14
15 15 15 14 14 14 14 14 14 14 13 13 13 13 13 12 12 12 12 12 12 12 11 11 11 12 12 12 11 11 11 11 11 11 12 12 12 12 12 13 13 13 13
16 15 15 15 15 15 14 14 14 14 14 13 13 13 13 13 13 13 12 12 12 12 12 11 11 11 12 12 12 12 12 11 11 11 11 12 12 12 12 12 12 13 13
16 15 15 15 15 15 15 15 15 14 14 14 14 13 13 13 13 13 13 12 12 12 12 12 11 11 12 11 11 12 11 12 12 11 11 11 11 12 12 12 12 12 12
16 16 16 16 16 15 15 15 15 14 14 14 14 14 14 14 13 13 13 13 12 12 12 12 12 11 11 11 11 11 11 11 11 11 11 11 11 11 11 12 12 12 12
16 16 16 16 16 16 15 15 15 15 15 14 14 14 14 14 14 13 13 13 12 12 12 12 12 12 12 12 11 11 11 11 11 11 12 12 12 12 12 11 11 11 12
17 16 16 16 16 16 16 15 15 15 15 14 14 14 14 14 14 14 13 13 13 13 12 12 12 12 12 12 12 11 11 11 11 11 11 11 11 12 12 11 11 11 11
17 16 16 16 16 16 16 15 15 14 14 14 14 14 13 13 13 13 13 13 12 12 12 12 12 12 12 12 12 11 11 11 11 11 11 11 11 11 11 11 11 11 11
17 17 17 16 16 16 15 15 14 14 14 13 13 13 13 12 13 13 13 13 13 12 12 12 12 12 12 12 12 12 11 11 11 11 11 11 11 11 11 11 11 11 11
17 17 17 16 16 15 15 14 14 14 13 13 12 12 12 12 12 12 12 12 12 12 12 12 12 12 12 11 11 11 11 11 11 11 11 11 11 11 11 11 11 11 11
17 17 16 15 15 15 15 14 13 13 13 12 12 12 11 11 11 11 11 11 12 11 11 12 12 11 11 11 11 11 11 11 10 10 10 10 10 10 11 11 11 11 11
16 16 16 15 15 14 14 14 13 13 13 12 11 11 11 11 11 11 11 11 11 11 11 11 11 11 10 10 10 10 10 10 10 10 10 10 10 10 10 10 10 10 10
16 16 15 15 15 14 14 14 13 13 12 12 11 11 11 11 11 11 11 11 11 11 10 10 10 10 10 10 10 9 9 9 9 9 9 9 9 9 10 10 10 10 10
16 16 15 15 14 14 13 13 12 12 11 11 11 10 10 10 10 10 10 10 10 10 9 9 9 9 9 9 9 9 8 8 8 8 8 8 8 8 9 9 9 9 9
16 16 15 15 14 13 13 12 11 10 10 9 10 10 10 9 9 9 9 9 9 9 9 8 8 8 8 8 8 8 8 8 8 8 8 8 8 8 8 8 8 8 8
16 15 15 14 14 13 12 11 11 10 9 9 8 9 9 9 9 9 8 8 8 8 8 7 7 7 7 7 7 7 7 7 7 7 7 7 7 7 7 7 7 7 7
15 15 15 14 13 12 12 11 10 9 9 8 8 8 7 7 7 7 7 7 7 7 6 6 6 6 6 6 6 6 6 6 6 6 6 6 6 6 6 6 6 6 6
15 14 14 13 12 11 11 10 9 9 8 8 7 7 7 6 6 6 6 6 6 5 5 5 5 5 5 5 5 4 4 4 4 4 4 4 4 5 5 5 5 5 5
14 14 13 12 11 11 10 9 8 8 8 7 7 7 6 6 6 5 5 5 5 4 4 4 4 4 4 4 4 3 3 3 3 3 3 3 3 3 3 3 3 4 4
13 12 12 11 10 10 9 8 8 7 7 6 6 6 5 5 5 5 4 4 4 4 3 3 3 3 3 3 3 3 2 2 2 2 2 2 2 2 2 2 2 2 3
12 11 11 10 9 9 8 7 7 6 6 6 6 5 5 4 4 4 4 3 3 3 3 3 3 2 2 2 2 2 2 2 2 2 1 2 1 1 1 1 2 2 2
10 10 9 9 8 8 7 7 6 6 6 5 5 5 4 4 4 3 3 3 3 3 2 2 2 2 2 2 1 1 1 2 2 1 1 1 1 1 1 1 1 1 1
9 9 8 8 7 7 6 6 6 5 5 5 4 4 4 4 3 3 3 2 2 2 2 2 2 1 1 1 1 1 1 1 1 1 1 1 0 0 0 -0 -0 -0 -0
Wind_Speed
7 7 6 5 4 4 4 4 4 4 3 4 3 4 4 3 3 3 4 3 4 4 3 3 3 4 4 3 4 4 4 5 7 6 4 4 5 5 4 5 7 8 9
7 7 6 5 5 5 4 4 4 3 3 4 3 3 3 3 3 4 3 4 4 4 4 4 4 3 4 4 4 5 5 5 6 7 6 6 6 6 6 6 6 7 8
8 7 7 7 6 5 5 4 4 4 4 3 3 3 3 3 4 4 4 4 4 4 4 4 4 4 4 4 4 5 5 5 6 6 7 6 6 6 6 6 7 6 7
9 8 8 7 6 6 5 4 4 4 4 4 4 4 4 4 4 4 4 4 4 3 3 4 4 4 5 5 4 5 5 5 5 6 6 6 6 6 6 6 6 6 6
10 9 9 8 7 6 5 5 5 5 5 5 5 5 4 4 4 5 5 5 5 4 4 4 3 3 5 5 5 5 5 5 5 5 6 6 6 5 5 5 6 6 7
11 10 8 8 7 7 6 6 6 6 6 6 6 6 6 5 2 5 7 6 6 5 5 4 4 4 5 6 6 7 7 7 7 6 6 7 7 6 6 6 6 6 6
12 10 9 9 8 8 7 7 7 7 7 7 7 7 8 6 4 6 8 8 7 6 6 5 4 4 4 5 5 8 9 9 9 9 9 9 8 7 7 8 7 8 8
12 11 10 9 8 8 7 7 7 7 7 7 7 8 8 7 5 7 8 9 8 7 7 6 6 6 4 5 6 6 6 6 6 8 8 8 8 7 7 8 8 8 9
12 11 11 10 9 8 8 7 7 6 7 7 7 7 8 7 6 7 8 8 8 8 7 6 6 6 1 3 7 7 7 6 5 8 8 10 10 10 9 7 7 7 8
12 11 10 9 8 8 7 6 5 5 6 6 6 7 7 8 3 5 8 7 8 7 6 6 4 6 3 3 6 7 7 6 6 6 7 9 9 9 10 9 8 7 7
11 10 9 8 8 7 5 5 5 5 5 6 6 6 6 6 3 3 5 7 7 7 6 5 3 4 5 5 7 7 6 7 7 7 6 6 6 6 6 7 7 7 8
10 9 9 8 6 5 5 4 4 4 4 5 5 5 4 3 2 2 3 6 8 7 6 5 1 3 3 5 5 4 6 6 6 5 5 5 5 5 5 6 7 7 8
11 10 8 8 6 5 5 4 3 3 3 3 3 3 3 3 2 3 5 5 6 6 4 2 3 0 4 4 1 4 5 4 4 4 5 5 5 6 6 6 7 7 8
12 10 9 8 7 6 4 3 2 1 1 2 2 2 3 3 3 4 3 2 4 5 3 3 4 2 2 2 2 2 3 3 4 4 5 5 5 5 5 5 6 5 6
12 10 9 8 7 6 5 2 2 3 2 1 1 2 3 3 5 8 5 3 2 1 1 1 1 1 0 1 2 3 3 4 3 4 5 5 5 6 6 5 5 5 5
12 11 8 8 7 7 7 6 8 6 8 7 6 5 3 4 5 6 6 6 6 3 1 1 1 2 2 3 3 3 3 4 5 5 5 5 5 6 6 6 5 6 6
12 11 8 8 8 8 7 7 7 6 7 8 8 7 7 6 6 6 5 6 6 3 3 3 3 3 3 3 3 4 4 5 5 5 5 5 6 6 6 6 6 6 7
12 10 9 8 8 8 7 7 6 6 5 5 6 8 7 7 7 6 3 1 5 5 4 4 3 3 3 3 4 4 4 5 5 5 5 6 6 6 7 7 7 8 8
12 10 9 9 8 8 7 7 6 6 5 5 5 5 5 5 6 5 3 4 4 4 4 4 4 3 3 3 3 4 4 4 5 6 6 6 7 7 7 8 8 9 9
11 12 11 10 9 9 8 7 7 6 6 5 4 3 3 2 3 4 4 4 4 4 3 3 3 3 3 3 4 4 4 5 6 6 6 7 7 7 8 9 9 9 9
12 13 14 11 10 9 9 8 8 7 6 6 5 4 2 3 3 3 3 3 3 3 3 3 3 3 3 4 4 5 5 5 6 6 7 7 8 8 8 8 9 9 9
13 13 12 11 10 10 9 9 8 8 8 7 6 6 3 2 3 3 2 2 2 2 2 2 2 3 4 4 5 5 6 6 7 8 8 8 8 9 9 9 10 10 10
13 14 13 11 11 11 10 9 8 8 8 7 6 5 4 3 2 2 1 1 1 1 2 2 3 3 4 5 5 6 6 7 7 9 9 10 10 10 10 10 12 13 12
14 14 13 12 12 11 10 10 9 8 7 7 6 5 4 3 2 2 1 0 1 2 2 3 4 5 6 6 6 6 7 8 10 10 12 11 11 11 11 11 12 13 13
14 14 13 12 12 11 10 10 9 8 8 7 6 5 4 3 3 2 1 1 2 3 4 4 4 5 7 8 8 8 8 10 11 12 12 11 12 13 12 13 12 13 13
13 13 12 11 11 11 10 10 9 8 7 6 5 5 4 4 3 2 2 2 3 4 4 5 6 7 9 9 9 10 10 11 13 14 13 11 12 12 13 12 15 14 15
Wind_Direction
214 217 222 231 242 252 258 271 275 282 282 290 303 307 316 321 317 316 312 313 307 310 300 297 297 305 295 287 279 270 265 263 266 270 267 269 266 268 264 265 261 249 240
210 214 221 226 231 241 245 254 262 272 279 286 295 297 305 310 312 315 315 309 308 311 309 300 295 292 290 286 281 275 271 266 267 274 275 274 274 275 275 269 263 252 252
202 210 216 220 226 235 243 249 259 265 268 269 281 288 293 294 299 300 301 305 308 308 306 300 298 294 286 282 277 277 277 272 267 270 276 279 274 271 274 268 260 255 255
198 208 216 220 221 229 234 244 252 255 260 267 270 275 282 284 283 287 290 294 297 296 295 293 294 291 292 293 282 280 280 277 271 268 272 276 273 274 271 269 267 256 255
200 208 214 216 216 223 230 238 245 248 257 264 268 270 271 274 278 286 286 283 286 288 286 287 293 301 312 300 296 294 287 278 275 274 276 281 277 276 275 275 272 274 265
204 209 209 214 214 222 231 236 242 248 255 259 262 266 268 266 260 260 276 279 277 276 282 285 279 256 252 251 265 283 289 283 282 277 277 275 280 279 278 274 273 274 272
204 206 205 210 214 222 228 235 240 245 249 256 259 262 264 258 219 241 250 269 273 276 279 280 277 274 269 279 255 242 250 241 252 273 276 277 281 283 282 278 272 271 269
203 205 205 209 214 220 227 237 244 252 253 256 262 263 265 262 227 243 246 254 263 266 265 268 270 275 274 290 288 283 281 268 254 255 270 281 285 287 280 278 282 281 278
202 205 204 208 214 220 227 237 245 252 256 259 263 266 267 261 216 234 250 257 258 259 258 259 265 271 249 277 278 282 286 284 246 239 264 276 286 279 274 271 267 266 273
200 204 205 206 211 220 230 241 244 247 257 266 267 268 270 275 235 231 251 257 259 261 257 251 230 260 299 262 273 281 285 294 299 285 264 257 264 257 240 248 257 261 268
194 197 198 200 207 216 225 232 241 250 261 268 272 271 273 280 263 232 250 258 263 267 265 258 245 188 256 267 273 283 302 307 296 292 292 290 284 277 266 258 255 256 262
183 186 191 194 197 199 206 223 239 251 259 267 276 283 285 281 293 288 262 259 282 268 268 270 262 135 258 272 276 308 308 291 283 288 290 291 292 291 288 284 274 264 262
178 182 185 184 183 189 195 203 218 236 262 279 288 299 310 322 311 237 249 248 254 258 267 19 36 89 261 244 233 298 287 281 291 294 298 302 304 305 303 297 287 276 273
180 181 181 182 179 176 175 187 199 227 256 281 306 314 320 329 342 337 310 260 217 230 236 170 171 182 246 320 313 293 308 325 319 309 310 309 310 307 302 299 297 296 289
182 179 180 177 170 163 148 115 130 79 45 359 342 333 329 334 7 359 337 332 323 330 263 168 130 105 35 5 354 352 346 342 335 329 323 323 322 319 316 315 308 304 297
183 180 175 168 163 159 147 123 71 84 81 66 41 13 57 40 24 34 38 34 35 30 97 111 82 52 29 14 1 356 357 353 346 339 334 333 328 325 324 322 317 312 307
182 176 170 169 166 167 165 161 148 124 107 85 69 55 52 49 49 49 54 60 53 52 84 76 63 47 30 20 9 1 359 356 348 344 342 341 336 332 328 326 323 320 315
178 168 166 166 167 168 170 171 170 169 162 135 101 77 70 65 53 37 6 96 78 71 67 62 54 44 33 22 14 5 359 353 349 346 345 344 341 335 333 331 329 327 320
171 167 164 160 161 161 160 160 160 160 155 147 140 120 108 112 96 57 33 68 72 69 65 58 48 37 27 22 12 1 356 351 348 344 345 344 340 336 332 331 328 327 320
166 155 156 158 158 158 159 158 158 157 154 151 144 129 133 135 98 83 72 68 70 67 61 56 45 29 16 9 0 349 344 345 344 342 340 337 333 329 326 325 324 323 321
160 158 160 160 161 161 160 160 158 156 153 145 131 100 44 117 101 91 81 73 63 57 50 39 28 14 4 356 348 343 341 339 339 335 331 328 326 324 321 319 318 318 317
161 161 166 163 159 160 158 157 156 154 152 147 140 137 152 149 119 109 95 80 62 42 22 2 358 359 349 341 336 332 332 332 333 332 328 325 322 319 318 316 316 316 314
162 160 161 159 158 152 158 158 158 158 157 156 154 154 159 152 142 132 113 80 38 3 350 338 333 335 335 333 332 329 327 332 332 328 323 319 317 315 313 312 311 311 311
162 161 159 159 159 162 164 162 162 162 162 162 163 165 165 166 169 168 181 269 314 317 320 319 317 319 321 323 322 323 333 340 332 322 318 313 310 308 307 307 306 306 306
162 161 161 161 162 164 165 165 166 167 168 170 171 173 176 181 188 199 225 268 293 300 307 308 308 312 316 317 318 324 348 347 333 322 314 306 303 303 302 301 301 302 301
161 161 161 161 164 165 167 169 171 172 174 175 178 183 189 197 208 223 247 273 291 297 300 303 308 311 312 312 323 336 336 327 321 316 310 303 300 298 300 298 298 297 296
Height
1509 1510 1510 1511 1510 1510 1509 1508 1507 1507 1505 1504 1503 1502 1501 1500 1499 1497 1496 1495 1494 1494 1493 1492 1491 1490 1490 1490 1490 1490 1491 1491 1491 1492 1492 1492 1492 1492 1492 1492 1493 1494 1495
1507 1508 1508 1509 1508 1508 1508 1507 1506 1506 1505 1504 1503 1502 1501 1499 1498 1497 1495 1494 1493 1492 1492 1491 1490 1489 1489 1489 1488 1489 1489 1489 1489 1489 1489 1489 1489 1488 1488 1488 1489 1489 1490
1504 1505 1506 1507 1507 1507 1507 1506 1505 1505 1504 1503 1502 1501 1500 1498 1497 1496 1495 1494 1493 1491 1490 1490 1489 1488 1488 1487 1487 1487 1486 1486 1486 1486 1485 1485 1485 1485 1484 1484 1485 1485 1486
1501 1503 1504 1505 1505 1505 1505 1504 1504 1504 1503 1502 1501 1500 1499 1498 1497 1496 1494 1493 1492 1491 1490 1489 1488 1487 1486 1486 1485 1485 1484 1484 1483 1483 1482 1482 1482 1481 1481 1481 1481 1481 1481
1498 1500 1501 1503 1503 1503 1503 1503 1502 1502 1501 1501 1500 1499 1498 1497 1496 1494 1494 1492 1492 1491 1489 1488 1486 1485 1484 1483 1483 1482 1482 1481 1481 1480 1479 1479 1478 1478 1478 1477 1477 1477 1477
1495 1497 1498 1500 1500 1501 1501 1501 1501 1500 1500 1499 1498 1498 1496 1495 1494 1492 1491 1491 1490 1489 1488 1487 1485 1483 1482 1481 1480 1479 1479 1478 1478 1478 1477 1476 1475 1475 1474 1474 1473 1473 1473
1492 1494 1495 1496 1497 1498 1498 1499 1498 1498 1498 1497 1496 1495 1494 1494 1492 1491 1489 1489 1488 1488 1487 1485 1484 1482 1480 1480 1478 1477 1476 1475 1475 1474 1474 1473 1472 1472 1471 1471 1470 1470 1469
1488 1490 1492 1493 1494 1495 1496 1496 1496 1496 1495 1494 1493 1492 1491 1490 1489 1488 1487 1486 1486 1485 1484 1483 1482 1481 1479 1478 1476 1475 1474 1473 1472 1471 1471 1470 1469 1468 1468 1467 1466 1465 1465
1484 1487 1488 1490 1491 1492 1493 1493 1493 1492 1492 1491 1490 1489 1488 1487 1486 1485 1484 1484 1483 1483 1482 1480 1479 1478 1477 1475 1474 1473 1472 1471 1469 1468 1467 1466 1465 1464 1464 1463 1463 1462 1461
1480 1483 1485 1487 1488 1489 1489 1490 1489 1489 1488 1487 1486 1485 1484 1483 1482 1481 1481 1480 1481 1480 1479 1478 1476 1475 1474 1473 1472 1471 1470 1469 1467 1466 1464 1463 1462 1461 1460 1460 1459 1459 1457
1476 1479 1481 1483 1484 1485 1486 1486 1486 1485 1484 1484 1483 1481 1480 1479 1478 1477 1476 1476 1477 1477 1476 1475 1474 1472 1471 1470 1469 1468 1467 1466 1464 1463 1462 1460 1459 1458 1457 1456 1455 1455 1454
1472 1475 1477 1479 1480 1481 1482 1482 1482 1481 1481 1480 1479 1478 1477 1475 1474 1473 1472 1472 1472 1472 1472 1472 1471 1469 1468 1468 1467 1466 1464 1463 1462 1461 1459 1458 1457 1455 1454 1453 1451 1450 1449
1468 1471 1473 1475 1476 1477 1478 1478 1478 1478 1478 1477 1476 1475 1474 1472 1471 1469 1469 1468 1468 1468 1468 1467 1467 1466 1466 1465 1464 1463 1462 1461 1460 1459 1457 1456 1454 1452 1450 1449 1447 1446 1445
1464 1466 1469 1471 1472 1473 1474 1474 1475 1474 1474 1473 1473 1472 1471 1469 1468 1467 1466 1465 1465 1465 1465 1464 1464 1463 1463 1462 1462 1461 1460 1459 1457 1456 1455 1453 1451 1450 1448 1446 1445 1443 1441
1460 1462 1464 1466 1468 1469 1470 1470 1470 1470 1470 1470 1469 1468 1468 1467 1465 1464 1463 1462 1462 1462 1462 1462 1461 1461 1461 1460 1459 1458 1457 1456 1455 1454 1452 1451 1449 1447 1446 1444 1442 1440 1439
1455 1458 1460 1462 1463 1465 1466 1466 1466 1467 1467 1466 1466 1465 1464 1464 1462 1461 1460 1460 1459 1459 1460 1460 1460 1459 1459 1458 1457 1456 1455 1454 1453 1451 1450 1448 1447 1445 1443 1441 1439 1438 1436
1450 1452 1454 1457 1459 1460 1462 1463 1463 1463 1464 1463 1463 1462 1462 1461 1460 1459 1459 1458 1458 1458 1458 1458 1458 1457 1457 1456 1455 1454 1454 1452 1451 1449 1448 1446 1445 1443 1441 1439 1437 1435 1433
1444 1447 1449 1452 1454 1456 1458 1459 1460 1461 1461 1461 1461 1460 1460 1459 1459 1458 1457 1457 1457 1456 1456 1456 1456 1456 1455 1454 1454 1453 1452 1450 1449 1448 1446 1444 1443 1441 1438 1436 1434 1432 1430
1438 1441 1444 1447 1449 1451 1453 1455 1456 1457 1459 1459 1459 1458 1458 1458 1457 1457 1456 1456 1456 1456 1455 1455 1455 1454 1454 1453 1452 1451 1450 1449 1447 1446 1444 1442 1440 1438 1436 1434 1432 1429 1427
1432 1435 1439 1442 1444 1446 1449 1451 1452 1454 1456 1457 1457 1457 1457 1457 1457 1456 1456 1455 1455 1455 1454 1454 1454 1453 1452 1451 1450 1449 1448 1447 1445 1444 1442 1440 1438 1436 1434 1431 1429 1426 1424
1425 1429 1433 1437 1439 1442 1444 1447 1449 1451 1452 1454 1454 1454 1454 1456 1456 1455 1455 1455 1455 1454 1454 1453 1452 1452 1451 1450 1449 1448 1446 1445 1443 1441 1439 1437 1435 1433 1430 1428 1426 1423 1420
1419 1423 1427 1431 1434 1437 1440 1443 1445 1448 1449 1451 1452 1452 1452 1453 1454 1454 1454 1454 1453 1453 1452 1451 1451 1450 1448 1447 1446 1445 1444 1442 1440 1438 1436 1434 1431 1429 1427 1424 1422 1419 1417
1413 1417 1422 1426 1429 1433 1436 1439 1442 1444 1446 1448 1449 1450 1451 1452 1452 1452 1452 1452 1451 1451 1450 1449 1448 1447 1446 1445 1443 1442 1440 1438 1436 1434 1431 1429 1427 1425 1422 1420 1417 1414 1412
1408 1412 1417 1421 1425 1429 1432 1436 1439 1441 1443 1445 1447 1448 1449 1449 1450 1450 1450 1449 1449 1448 1447 1446 1445 1444 1442 1441 1439 1437 1436 1433 1431 1429 1427 1424 1422 1419 1417 1414 1412 1409 1406
1403 1407 1412 1417 1421 1425 1429 1432 1435 1438 1440 1442 1444 1445 1446 1447 1447 1447 1447 1446 1446 1445 1444 1443 1441 1440 1438 1436 1435 1433 1430 1428 1426 1423 1421 1418 1416 1413 1411 1408 1406 1403 1400
1399 1404 1408 1413 1417 1421 1425 1429 1432 1435 1437 1439 1441 1442 1443 1443 1444 1444 1444 1443 1442 1441 1440 1439 1437 1435 1433 1431 1429 1427 1425 1422 1420 1417 1415 1412 1409 1407 1404 1401 1399 1396 1393